Regional Weather Roundup
Issued by NWS

Current Version | Previous Version | Text Only | Print | Product List | Glossary On
Versions: 1 2 3 4 5 6 7 8 9 10 11 12 13 14 15 16 17 18 19 20 21 22 23 24 25 26 27 28 29 30 31 32 33 34 35 36 37 38 39 40 41 42 43 44 45 46 47 48 49 50
000
ASUS44 KBMX 172110
RWRAL

ALABAMA REGIONAL WEATHER ROUNDUP
NATIONAL WEATHER SERVICE BIRMINGHAM AL
300 PM CST SUN DEC 17 2017

NOTE: "FAIR" INDICATES FEW OR NO CLOUDS BELOW 12,000 FEET
WITH NO SIGNIFICANT WEATHER AND/OR OBSTRUCTIONS TO VISIBILITY.

THE REMARK "TC" DENOTES TEMPERATURE IN DEGREES CELSIUS.

ALZ001>011-014-016>018-020-172200-
NORTH ALABAMA

CITY           SKY/WX    TMP DP  RH WIND       PRES   REMARKS
MUSCLE SHOALS  CLOUDY    50  45  83 CALM      30.11R
HUNTSVILLE     CLOUDY    49  45  86 SE6       30.11R
DECATUR        CLOUDY    49  47  93 SE9       30.11R
HALEYVILLE     LGT RAIN  49  48  97 S7        30.12R
GADSDEN        CLOUDY    43  42  97 E6        30.16R
$$

ALZ012-013-022-023-030>036-040>044-172200-
WEST CENTRAL ALABAMA

CITY           SKY/WX    TMP DP  RH WIND       PRES   REMARKS
TUSCALOOSA     CLOUDY    50  47  89 E6        30.12R
DEMOPOLIS        N/A     48  45  88 CALM      30.11R
$$

ALZ015-024>026-033>036-041>044-172200-
CENTRAL ALABAMA

CITY           SKY/WX    TMP DP  RH WIND       PRES   REMARKS
BIRMINGHAM     CLOUDY    47  44  90 VRB3      30.14R
MONTGOMERY     LGT RAIN  49  45  86 N3        30.16S FOG
SHELBY CO ARPT CLOUDY    47  46  97 E7        30.11F
MAXWELL AFB    RAIN      49  48  97 N3        30.14S FOG
GREENVILLE     LGT RAIN  57  54  89 NE5       30.12S FOG
SELMA          LGT RAIN  48  46  93 SE10      30.09F
PRATTVILLE     LGT RAIN  47  47 100 CALM      30.14F
BESSEMER       CLOUDY    46  45  96 E7        30.11F
TALLADEGA      CLOUDY    45  44  97 CALM      30.15S
PELL CITY      CLOUDY    45  45 100 CALM      30.15F FOG
MARION         CLOUDY    47  47 100 NE3       30.09S
SYLACAUGA      CLOUDY    48  48 100 CALM      30.14F
$$

ALZ019-021-028-029-037-038-045>048-172200-
EAST CENTRAL ALABAMA

CITY           SKY/WX    TMP DP  RH WIND       PRES   REMARKS
ANNISTON       CLOUDY    45  43  93 N5        30.15S
ALEXANDER CITY RAIN      44  44 100 CALM      30.16R
AUBURN         CLOUDY    54  50  86 CALM      30.17R
$$

ALZ051>064-172200-
SOUTHWEST ALABAMA

CITY           SKY/WX    TMP DP  RH WIND       PRES   REMARKS
MOBILE         LGT RAIN  68  67  96 S5        30.11S FOG
BROOKLEY FIELD RAIN      68  67  96 CALM      30.12S FOG
EVERGREEN      LGT RAIN  68  65  90 S3        30.12R FOG
$$

ALZ049-050-065>069-172200-
SOUTHEAST ALABAMA

CITY           SKY/WX    TMP DP  RH WIND       PRES   REMARKS
DOTHAN         CLOUDY    71  64  78 SW10      30.17S
OZARK          CLOUDY    69  63  82 S10G20    30.13S
TROY           LGT RAIN  65  61  87 NW6       30.14R
EUFAULA        CLOUDY    71  59  65 S6        30.12R
$$



USA.gov is the U.S. government's official web portal to all federal, state and local government web resources and services.